Flag for Germany Weather past 2 weeks in Sankt Augustin, North Rhine-Westphalia, Germany

Now
75 °F

Sunny.


Feels Like: 76 °F
Forecast: 59 / 77 °F
Wind: 3 mph from North

Location: Koeln / Bonn

Current Time: Jul 5, 2015 at 12:14:54 PM

Latest Report: Jul 5, 2015 at 11:50 AM


Visibility: 10 mi

Pressure: 30.01 "Hg

Humidity: 78%

Dew point: 68 °F

Location of Sankt AugustinLocation

Historic Weather in Sankt Augustin — Graph

°F

Sankt Augustin temperature yesterday

Maximum temperature yesterday: 97 °F (at 1:50 PM)
Minimum temperature yesterday: 70 °F (at 4:20 AM)
Average temperature yesterday: 85 °F

Past Weeks' High & Low Weather Summary

 TemperatureHumidityPressure
High97 °F (Jul 2, 4:20 PM)94% (Jun 22, 8:50 AM)30.24 "Hg (Jun 22, 8:50 AM)
Low48 °F (Jun 22, 11:50 PM)17% (Jun 30, 3:50 PM)29.68 "Hg (Jun 22, 9:20 PM)
Average68 °F63%30.08 "Hg
* Reported Jun 20 11:20 AM — Jul 5 11:20 AM, Sankt Augustin, Weather by CustomWeather, © 2015

Note: Actual official high and low records may vary slightly from our data, if they occured in-between our weather recording intervals... More about our weather records

Advertising

Sankt Augustin weather history for previous 24 hours

 ConditionsComfort  
Time TempWeatherWind HumidityBarometerVisibility
11:20 AM
Sun, Jul 5
72 °FSunny.3 mph83%30.01 "Hg10 mi
10:50 AM72 °FSprinkles. Partly sunny.6 mph83%30.04 "HgN/A
10:20 AM72 °FThundershowers. Broken clouds.6 mph73%30.01 "HgN/A
9:50 AM70 °FThunderstorms. Partly sunny.8 mph78%30.04 "HgN/A
9:20 AM75 °FThundershowers. Scattered clouds.2 mph61%30.07 "HgN/A
8:50 AM73 °FScattered clouds.3 mph65%30.07 "HgN/A
8:20 AM72 °FSunny.3 mph69%30.07 "Hg10 mi
7:50 AM72 °FPassing clouds.2 mph69%30.07 "HgN/A
7:20 AM70 °FPassing clouds.2 mph73%30.07 "HgN/A
6:50 AM70 °FPassing clouds.6 mph69%30.07 "HgN/A
6:20 AM68 °FPassing clouds.8 mph73%30.09 "HgN/A
5:20 AM70 °FClear.3 mph69%30.09 "Hg10 mi
4:50 AM72 °FScattered showers. Passing clouds.6 mph65%30.09 "HgN/A
4:20 AM70 °FClear.7 mph64%30.09 "Hg10 mi
3:50 AM70 °FClear.7 mph64%30.09 "Hg10 mi
3:20 AM72 °FClear.9 mph61%30.09 "Hg10 mi
2:50 AM75 °FClear.9 mph50%30.09 "Hg10 mi
2:20 AM77 °FClear.10 mph47%30.09 "Hg10 mi
1:50 AM77 °FClear.8 mph54%30.09 "Hg10 mi
1:20 AM77 °FClear.8 mph61%30.09 "Hg10 mi
12:50 AM79 °FClear.7 mph61%30.09 "Hg10 mi
12:20 AM79 °FClear.5 mph61%30.09 "Hg10 mi
11:50 PM
Sat, Jul 4
79 °FClear.7 mph61%30.09 "Hg10 mi
11:20 PM81 °FClear.3 mph58%30.07 "Hg10 mi
10:50 PM79 °FClear.2 mph61%30.07 "Hg10 mi
10:20 PM79 °FSunny.6 mph58%30.07 "Hg10 mi
9:50 PM84 °FSunny.3 mph48%30.07 "Hg10 mi
9:20 PM86 °FSunny.2 mph46%30.07 "Hg10 mi
8:50 PM88 °FSunny.3 mph40%30.07 "Hg10 mi
8:20 PM90 °FSunny.6 mph38%30.07 "Hg10 mi
7:50 PM91 °FSunny.6 mph34%30.07 "Hg10 mi
7:20 PM95 °FSunny.9 mph26%30.07 "Hg10 mi
6:50 PM95 °FSunny.8 mph26%30.07 "Hg10 mi
6:20 PM97 °FSunny.7 mph25%30.07 "Hg10 mi
5:50 PM95 °FSunny.7 mph28%30.07 "Hg10 mi
5:20 PM97 °FSunny.8 mph25%30.07 "Hg10 mi
4:50 PM97 °FSunny.9 mph25%30.07 "Hg10 mi
4:20 PM97 °FSunny.10 mph25%30.07 "Hg10 mi
3:50 PM97 °FSunny.13 mph23%30.07 "Hg10 mi
3:20 PM97 °FSunny.10 mph25%30.07 "Hg10 mi
2:50 PM97 °FPassing clouds.8 mph25%30.07 "HgN/A
2:20 PM97 °FSunny.6 mph27%30.07 "Hg10 mi
1:50 PM97 °FSunny.8 mph30%30.07 "Hg10 mi
1:20 PM93 °FSunny.3 mph34%30.07 "Hg10 mi
12:50 PM93 °FSunny.5 mph39%30.07 "Hg10 mi
12:20 PM91 °FSunny.8 mph38%30.07 "Hg10 mi
Weather by CustomWeather, © 2015

See weather overviewHow to use our weather pages